Vertical_Velocity
-11 -9 -6 -1 3 4 4 3 3 3 3 3 2 2 2 4 4 4 4 4 3 1 -0 -1 -1 -1 -1 1 2 3 4 3 4 6 6 3 3 5 7 9 18 22 20 8 4 3 3 3 3 2 1 1 0 -0 -1 -1 -1 -1 -1 -0 -1 -1 -0 1 0 0 -0 -1 -1
-10 -9 -5 -1 2 4 5 5 4 4 3 2 1 0 1 3 5 5 5 5 3 2 1 -0 -1 -1 -2 -1 -0 1 2 1 3 6 7 6 6 6 9 13 26 26 20 9 3 2 3 3 3 2 1 1 1 0 -0 -1 -0 -0 -0 -0 -1 -0 1 1 1 0 -0 -1 -1
-8 -7 -4 -1 2 4 6 6 5 4 3 1 -1 -2 -1 1 4 6 6 5 3 2 1 1 -0 -1 -2 -2 -1 -1 -0 -1 1 5 10 11 8 8 12 27 26 22 16 6 3 3 4 3 3 2 2 1 1 0 -0 -1 -0 -0 -0 -1 -1 -0 0 1 0 -0 -1 -2 -1
-6 -4 -2 -1 2 4 5 5 5 4 3 0 -3 -4 -3 0 4 5 6 4 3 2 1 2 1 -1 -1 -0 -0 -0 0 2 7 10 11 9 12 16 20 22 20 14 7 1 2 2 2 3 3 2 2 1 1 0 -1 -1 -1 -1 -2 -3 -2 -1 -0 0 1 1 -0 -3 -1
-4 -3 -1 0 2 4 4 5 5 3 1 -1 -4 -4 -3 1 4 5 5 5 4 2 2 2 1 1 1 2 2 3 5 9 10 6 1 1 8 12 13 12 12 8 3 0 1 2 3 3 2 2 2 1 1 -0 -1 -1 -1 -1 -1 1 -2 -2 -1 1 2 2 1 -2 -1
-3 -2 -0 1 3 4 4 4 3 1 -1 -2 -3 -3 -1 2 4 5 4 4 2 2 3 3 2 2 2 2 5 9 14 19 13 3 -4 -4 2 6 8 9 6 1 -1 1 2 3 3 3 2 2 1 1 0 -1 -1 -0 -1 4 10 12 2 -1 -0 2 1 1 0 -1 0
-2 -1 -0 1 2 3 3 2 1 -0 -2 -2 -1 -0 1 4 5 4 2 0 1 3 4 4 3 3 3 5 7 10 13 16 7 -0 -4 -3 -2 -0 1 1 -3 -3 -0 1 2 3 2 2 2 2 1 1 -0 -1 -1 -2 1 11 20 17 4 -0 0 1 1 1 1 1 0
-2 -2 -1 -0 1 2 1 1 0 -1 -2 -2 -0 1 2 4 5 3 0 -1 -0 1 3 4 4 5 7 10 6 6 7 8 3 -2 -4 -1 1 -0 -3 -4 -3 -1 0 1 2 2 2 2 4 3 2 0 0 -0 -1 -6 3 14 20 12 1 -1 -0 1 1 1 1 1 -0
-2 -2 -2 -1 -0 0 0 -0 -0 -1 -1 -1 0 1 2 4 3 1 -1 -3 -4 -1 2 5 5 8 9 8 5 6 8 7 5 1 -1 -1 2 0 -3 -4 -2 -1 0 2 2 2 2 2 2 2 2 1 0 -1 -4 -5 3 12 14 4 -2 -2 -0 1 1 1 1 1 0
-2 -2 -2 -2 -2 -1 -0 -1 -1 -0 -1 -1 -0 0 1 1 1 -0 -3 -6 -6 -2 3 8 10 11 10 5 3 4 4 5 10 10 5 -0 -0 -1 -2 -3 -2 -0 1 1 2 2 2 1 1 1 1 1 1 -1 -4 -4 3 8 6 -3 -3 -2 -1 -1 0 1 1 1 0
-2 -2 -2 -4 -3 -2 -1 -1 -1 -1 -1 -1 -1 -0 -0 0 -0 -2 -4 -7 -4 2 10 15 17 18 14 5 3 2 3 5 10 9 4 -1 -2 -2 -2 -2 -1 0 1 1 1 2 2 1 1 1 1 0 -2 -3 -4 -3 3 4 0 -5 -3 -2 -1 -1 0 2 2 1 1
-1 -1 -2 -3 -3 -2 -1 -2 -2 -1 -1 -1 -1 -0 -0 -0 -1 -3 -5 -5 1 8 13 13 16 17 14 6 4 4 4 6 6 4 0 -2 -3 -3 -3 -2 -0 1 1 1 1 1 1 1 1 0 -0 -2 -3 -4 -4 -1 4 3 0 -2 -2 -1 -0 0 1 2 2 0 1
-1 -1 -1 -2 -2 -2 -2 -3 -2 -2 -1 -1 -0 -0 -0 -1 -3 -3 -1 3 8 11 12 11 11 11 9 6 5 5 6 6 3 1 -0 -1 -2 -3 -3 -2 -0 1 1 1 0 0 0 0 -0 -0 -1 -2 -3 -3 -3 -0 3 3 2 1 1 1 1 1 2 2 1 -0 2
-2 -1 -0 -0 -1 -1 -2 -2 -2 -1 -1 -0 -0 -0 -1 -3 -2 2 7 11 13 13 13 14 14 11 8 5 4 4 4 4 1 1 1 0 -2 -2 -2 -1 -0 0 0 0 -0 -0 -0 -0 -1 -1 -2 -2 -2 -1 -0 2 2 2 1 1 1 1 1 1 1 1 1 -0 4
-1 -0 1 1 0 -0 -1 -1 -1 -0 -0 -0 -1 -1 -2 -1 3 8 11 12 11 10 12 15 16 12 7 3 2 2 2 2 2 2 2 1 -1 -2 -1 -0 -0 -0 -0 -0 -0 -0 -0 -0 -1 -2 -2 -3 -1 2 6 10 4 1 0 1 1 1 1 1 1 1 1 1 6
-1 1 2 2 2 1 1 1 0 -0 -0 -1 -2 -2 -0 3 7 10 11 8 4 4 7 12 12 8 4 3 2 2 2 2 2 2 2 0 -1 -1 -0 0 0 -0 -0 -0 0 0 0 -0 -1 -2 -3 -3 3 12 19 22 9 1 -2 -1 1 1 1 1 1 1 3 8 14
1 2 3 3 3 3 2 1 0 -1 -2 -3 -3 -2 1 4 7 8 7 2 1 2 4 6 6 4 3 3 3 2 2 2 1 1 0 -0 -0 0 1 1 1 1 1 1 1 1 -0 -1 -2 -4 -3 -0 16 28 33 29 14 3 -3 -2 0 1 1 1 1 4 10 18 23
2 3 4 4 4 3 2 -0 -2 -2 -3 -3 -2 -1 1 4 5 5 3 0 1 2 4 4 4 4 4 5 4 3 2 1 1 -0 -0 -0 1 1 2 2 2 2 2 2 1 0 -1 -1 -2 -4 -3 4 24 34 33 23 11 2 -2 -0 2 2 2 3 6 10 17 25 24
3 3 4 4 3 2 -0 -2 -3 -3 -2 -1 -0 1 2 4 4 3 3 2 3 4 4 4 5 5 6 7 4 2 1 1 1 0 -0 1 1 2 3 4 3 3 2 1 0 -0 -1 -0 -1 -4 -3 4 20 26 23 13 4 -0 -1 1 3 5 8 13 17 20 22 24 21
2 3 3 2 2 1 -0 -2 -1 -1 -0 1 2 3 3 3 4 4 5 5 5 5 5 5 5 6 7 6 4 2 0 -1 0 0 0 1 2 3 4 4 3 2 1 1 0 0 0 -0 -2 -4 -4 0 9 12 10 3 -1 -2 -1 1 6 14 20 24 24 22 19 16 12
2 2 2 1 2 2 1 0 1 1 2 3 3 3 3 4 5 6 7 6 5 5 5 6 5 4 4 4 4 1 -1 -2 -0 1 1 2 3 3 3 3 2 2 1 2 1 -0 -1 -3 -4 -4 -3 -1 2 2 0 -3 -3 -2 -1 3 12 19 23 21 17 12 8 5 3
1 1 1 1 1 1 1 0 1 1 2 2 2 2 3 5 6 6 6 5 4 4 5 5 3 2 2 5 4 1 -1 -2 0 2 2 2 3 2 2 2 2 3 3 2 -0 -2 -3 -3 -1 2 3 4 1 -1 -3 -3 -3 -2 -1 3 9 12 12 8 6 4 2 1 -0
-1 -0 -0 -0 0 -0 -0 -1 -1 -0 -0 0 1 2 3 4 4 4 3 2 2 3 3 3 1 2 6 12 9 3 -1 -1 1 3 3 2 2 2 2 3 4 4 3 1 -2 -2 -0 7 14 15 13 6 0 -2 -3 -2 -1 -1 -1 -0 1 1 1 -0 -0 -0 -1 -1 -2
-1 -1 -1 -1 -1 -1 -2 -2 -2 -1 -1 -1 -1 -0 1 1 1 1 -0 -1 0 2 2 2 3 7 12 14 7 1 -1 1 2 3 3 2 1 1 2 4 4 3 1 -1 -2 1 8 19 21 17 10 2 -2 -3 -2 -0 2 3 4 4 1 -1 -2 -4 -4 -4 -4 -4 -4
-2 -2 -2 -2 -2 -3 -3 -2 -2 -2 -2 -2 -2 -2 -1 -1 -2 -2 -2 -1 1 3 5 6 9 11 9 4 -0 -1 0 2 2 2 2 1 2 2 2 1 1 0 -0 -2 -1 4 9 13 10 6 1 -3 -2 -1 2 5 9 11 12 11 8 4 0 -3 -5 -6 -5 -4 -4
-2 -2 -2 -2 -3 -3 -3 -3 -3 -3 -3 -3 -3 -3 -3 -3 -2 -2 -1 -0 2 4 7 10 10 6 1 -3 -1 0 2 2 2 2 1 1 2 2 2 2 0 -1 -1 -1 1 3 3 2 0 -1 -2 -1 2 6 10 14 14 14 12 10 8 4 -0 -4 -6 -6 -4 -2 0
-1 -2 -2 -2 -2 -2 -3 -3 -2 -2 -2 -2 -2 -2 -2 -2 -1 -0 1 2 4 6 8 7 3 -0 -2 -0 1 2 2 2 2 2 1 1 2 1 1 -1 -1 -1 -0 1 1 1 1 0 -1 -1 0 3 8 12 14 13 10 7 5 3 -1 -3 -4 -4 -3 -1 2 3 4
1 1 0 1 -0 -0 -1 -1 -0 -0 -0 -0 -0 -1 -1 -0 -0 1 5 12 16 14 8 1 -1 -1 1 2 2 2 2 2 1 1 0 -0 -1 -2 -2 -1 -0 1 1 1 1 1 1 0 -0 -0 1 5 8 8 8 6 2 -2 -5 -6 -6 -5 -4 -1 3 5 6 5 3
4 4 3 2 2 2 3 2 3 3 2 2 1 -0 0 2 6 13 21 29 23 13 3 -1 0 2 2 2 2 1 1 1 1 0 -1 -3 -2 -0 2 3 2 2 2 2 2 1 0 -1 -3 -3 -3 -2 -1 -1 -1 -3 -4 -5 -6 -5 -4 -2 1 5 6 6 4 3 2
4 3 3 3 3 3 4 3 3 3 3 4 7 12 16 22 30 32 30 22 10 2 -1 1 2 2 2 1 1 1 1 -0 -1 -2 -1 3 9 11 9 5 3 2 2 2 1 0 -1 -3 -5 -5 -5 -4 -2 -2 -2 -3 -3 -4 -4 -3 -1 2 5 6 4 3 2 2 2
4 2 0 -0 1 2 3 3 4 6 9 16 28 35 39 38 33 23 12 2 -0 -0 1 3 2 2 1 1 0 -1 -2 -3 -1 3 8 14 12 8 4 1 1 1 1 0 -0 -2 -3 -3 -3 -2 -2 -1 -1 -1 -1 -2 -3 -2 -0 2 4 5 5 4 4 3 3 3 2
12 11 9 6 7 8 9 10 10 12 16 23 28 28 25 18 10 4 -0 -0 1 2 3 2 2 1 0 0 -1 -2 -0 5 10 11 10 6 3 1 -0 0 -0 -0 -1 -1 -1 -0 1 3 3 1 -0 -2 -2 -2 -2 -2 -0 2 4 6 7 6 5 4 4 3 2 2 1
19 21 21 16 13 13 14 14 13 11 10 10 10 8 5 3 1 1 2 3 3 2 2 1 1 0 -1 -1 2 6 10 11 8 4 1 -1 -1 -1 -0 -0 -1 -1 -0 1 3 6 8 7 4 0 -2 -3 -3 -2 -1 2 4 6 7 7 6 4 3 2 1 1 0 0 0
20 21 20 12 8 8 10 13 12 10 8 6 5 4 3 4 3 3 2 2 1 0 -1 -1 -1 -0 3 7 10 9 6 2 -0 -0 -0 0 1 2 2 2 2 3 4 6 7 6 4 2 -0 -1 -2 -2 -1 1 3 5 5 5 5 3 1 0 -0 -0 -0 0 0 0 0
14 12 9 4 4 5 7 10 12 12 11 9 6 4 4 4 2 1 -0 -1 -1 -2 -2 -0 3 7 9 9 5 2 -0 -0 2 3 4 5 5 6 6 5 5 6 6 6 5 3 1 -0 -1 -1 -1 1 3 4 5 5 4 2 1 0 -1 -1 -1 -0 -0 -0 0 0 0
7 5 3 6 9 9 7 6 8 10 11 10 6 4 3 2 0 -1 -2 -1 1 4 8 10 10 8 5 2 -1 -2 -1 0 3 5 6 6 6 6 5 4 4 3 3 3 2 1 -0 -1 -1 -0 2 4 5 5 4 3 1 0 -0 -0 -1 -1 -1 -1 -1 -1 -0 0 0
11 11 14 19 20 16 9 2 4 8 11 12 7 4 2 1 1 1 2 7 13 17 17 13 7 2 -0 -1 -2 -3 -3 -2 0 2 3 2 2 2 2 1 1 1 1 1 -0 -1 -1 -1 1 2 4 5 3 2 1 1 -0 -0 -0 -1 -1 -2 -1 -1 -1 -0 -0 0 1
14 16 19 21 19 13 6 0 2 5 9 11 7 3 1 0 2 6 12 19 21 18 12 4 -0 -2 -2 -1 -1 -1 -2 -2 -1 -0 -0 -0 0 0 0 -0 -1 -1 -1 -1 -0 -0 0 1 2 2 2 2 1 0 -0 -0 -0 -1 -1 -1 -2 -2 -1 -1 0 1 1 1 2
3 3 4 5 4 2 -0 -1 -0 1 2 3 2 0 -0 -0 3 9 16 20 16 9 2 -3 -3 -2 -1 -0 0 -0 -0 -0 -0 -0 -0 -1 -1 -1 -1 -1 -2 -2 -1 0 1 1 1 1 0 0 1 1 1 0 -0 -0 -1 -2 -2 -2 -1 -1 -1 -0 1 1 1 1 2
-5 -5 -4 -3 -3 -2 -2 -1 -1 -1 -1 -1 -1 -1 -1 -0 3 8 11 11 5 -0 -4 -4 -3 -2 -1 -1 -0 -0 -1 -1 -1 -1 -1 -2 -2 -2 -1 -0 -0 0 0 1 1 1 0 0 -0 -0 0 0 0 -0 -0 -0 -0 -1 -1 -1 -0 -0 -1 -1 0 1 1 1 1
-6 -4 -0 1 -1 -2 -2 -1 -0 0 0 -0 -1 -0 0 3 6 8 7 3 -1 -4 -4 -4 -4 -3 -3 -3 -3 -3 -3 -4 -3 -2 -1 -0 1 2 2 3 2 1 0 0 1 1 0 0 -0 -0 -1 -0 -0 0 0 1 1 -0 -1 -1 -0 -0 -1 -2 -1 -1 0 1 1
Height
5697 5700 5703 5704 5705 5706 5706 5706 5707 5707 5708 5708 5709 5711 5712 5713 5714 5715 5716 5718 5718 5719 5720 5720 5721 5722 5722 5723 5723 5723 5723 5722 5723 5722 5721 5721 5722 5723 5723 5724 5724 5723 5722 5720 5720 5720 5720 5720 5720 5720 5719 5719 5718 5718 5718 5718 5718 5717 5716 5716 5715 5715 5714 5714 5713 5713 5712 5711 5711
5691 5694 5697 5699 5700 5700 5701 5701 5701 5702 5703 5703 5704 5706 5707 5709 5710 5712 5713 5713 5714 5715 5716 5717 5717 5718 5718 5718 5719 5719 5719 5720 5720 5720 5719 5719 5720 5720 5722 5724 5722 5719 5718 5717 5717 5718 5718 5718 5718 5717 5716 5716 5716 5715 5715 5714 5714 5713 5713 5713 5713 5712 5712 5711 5710 5710 5709 5708 5708
5686 5688 5691 5693 5694 5695 5695 5696 5696 5697 5698 5698 5699 5701 5703 5704 5706 5707 5708 5709 5710 5711 5712 5713 5713 5714 5715 5715 5715 5715 5715 5715 5716 5716 5717 5717 5718 5719 5721 5720 5718 5716 5714 5714 5714 5714 5715 5715 5715 5714 5713 5713 5713 5712 5712 5711 5711 5711 5710 5710 5710 5709 5709 5708 5708 5707 5707 5705 5705
5680 5683 5685 5687 5689 5690 5690 5691 5691 5692 5693 5693 5694 5696 5698 5700 5702 5703 5704 5705 5706 5707 5708 5709 5710 5711 5712 5712 5712 5712 5712 5712 5713 5713 5714 5714 5715 5717 5717 5716 5715 5713 5711 5711 5711 5712 5712 5712 5712 5711 5711 5710 5710 5709 5709 5708 5708 5708 5708 5708 5707 5707 5706 5705 5705 5704 5704 5703 5702
5674 5677 5679 5682 5683 5684 5685 5685 5686 5687 5687 5688 5690 5692 5694 5696 5698 5698 5699 5700 5702 5703 5704 5706 5707 5707 5708 5708 5708 5708 5708 5709 5708 5708 5710 5711 5712 5713 5713 5713 5711 5709 5709 5708 5708 5709 5709 5709 5709 5708 5708 5708 5707 5707 5706 5706 5706 5705 5705 5705 5704 5704 5703 5703 5703 5702 5701 5700 5699
5668 5671 5673 5676 5677 5678 5679 5680 5680 5681 5682 5683 5685 5687 5689 5692 5693 5694 5695 5696 5698 5699 5701 5702 5703 5704 5704 5705 5705 5705 5705 5705 5705 5705 5706 5708 5708 5709 5709 5709 5707 5706 5706 5706 5706 5706 5706 5706 5706 5705 5705 5705 5704 5704 5703 5704 5703 5703 5702 5702 5701 5701 5701 5700 5699 5699 5698 5697 5696
5662 5665 5667 5669 5671 5672 5673 5674 5675 5676 5677 5679 5681 5683 5685 5688 5689 5690 5691 5692 5694 5696 5697 5698 5699 5700 5701 5702 5701 5701 5702 5701 5701 5702 5703 5703 5704 5705 5705 5704 5704 5703 5703 5703 5703 5703 5703 5703 5703 5703 5702 5702 5701 5701 5701 5700 5701 5701 5700 5699 5698 5698 5698 5697 5696 5696 5694 5693 5693
5656 5658 5661 5663 5665 5666 5668 5668 5670 5671 5673 5675 5677 5679 5681 5683 5684 5686 5687 5688 5690 5692 5694 5695 5696 5697 5698 5697 5697 5697 5698 5698 5698 5698 5698 5699 5700 5701 5701 5701 5701 5700 5700 5700 5700 5700 5700 5700 5700 5700 5699 5699 5698 5698 5698 5698 5698 5698 5697 5697 5696 5695 5695 5694 5693 5692 5691 5690 5689
5651 5653 5655 5657 5659 5661 5662 5663 5665 5667 5668 5670 5673 5675 5677 5678 5680 5681 5683 5684 5686 5688 5690 5692 5693 5693 5693 5691 5693 5694 5695 5695 5696 5695 5695 5695 5697 5697 5698 5698 5698 5698 5697 5697 5697 5698 5698 5698 5697 5697 5697 5696 5696 5696 5696 5696 5696 5695 5694 5694 5693 5693 5692 5691 5690 5689 5688 5687 5686
5646 5648 5650 5652 5654 5655 5657 5659 5660 5662 5664 5666 5668 5670 5672 5674 5676 5677 5679 5680 5683 5685 5688 5689 5690 5689 5688 5688 5689 5691 5692 5693 5693 5693 5692 5692 5693 5694 5695 5695 5694 5694 5694 5694 5694 5694 5694 5694 5694 5694 5693 5693 5693 5693 5693 5693 5693 5693 5692 5691 5691 5690 5688 5688 5687 5686 5684 5684 5683
5641 5643 5645 5647 5649 5651 5653 5654 5656 5658 5660 5662 5664 5666 5668 5670 5672 5673 5675 5677 5679 5683 5686 5687 5687 5685 5684 5684 5686 5688 5688 5690 5690 5689 5688 5689 5690 5691 5692 5692 5692 5691 5691 5691 5691 5691 5691 5691 5691 5691 5691 5691 5690 5690 5690 5689 5690 5690 5689 5688 5687 5686 5685 5684 5683 5683 5681 5681 5680
5636 5638 5640 5643 5644 5647 5648 5650 5652 5654 5656 5658 5660 5662 5664 5666 5668 5669 5671 5673 5677 5679 5680 5681 5681 5680 5680 5681 5683 5684 5685 5686 5686 5685 5686 5686 5688 5688 5689 5689 5688 5688 5688 5688 5688 5688 5688 5688 5688 5688 5688 5688 5688 5687 5687 5687 5687 5686 5686 5685 5684 5683 5682 5681 5680 5679 5678 5677 5676
5632 5634 5636 5638 5640 5642 5644 5646 5648 5650 5652 5654 5656 5658 5660 5662 5664 5667 5669 5672 5674 5674 5673 5674 5674 5675 5676 5678 5679 5681 5683 5683 5682 5682 5683 5684 5685 5685 5686 5686 5685 5685 5685 5685 5685 5685 5685 5685 5685 5685 5685 5685 5684 5684 5684 5683 5683 5683 5683 5682 5681 5680 5679 5678 5677 5676 5675 5674 5673
5627 5629 5631 5633 5636 5638 5639 5641 5643 5646 5648 5650 5652 5654 5656 5659 5662 5664 5666 5668 5668 5668 5669 5669 5670 5671 5672 5674 5676 5678 5679 5679 5678 5679 5680 5682 5682 5683 5683 5683 5683 5683 5683 5683 5683 5683 5683 5683 5683 5682 5682 5682 5681 5681 5680 5680 5680 5680 5680 5679 5678 5677 5676 5674 5673 5673 5672 5671 5670
5623 5625 5627 5629 5631 5633 5635 5637 5639 5641 5643 5646 5648 5650 5653 5656 5658 5659 5660 5660 5661 5663 5664 5666 5666 5667 5668 5671 5672 5674 5675 5675 5675 5676 5678 5679 5679 5679 5679 5679 5679 5679 5680 5680 5680 5680 5680 5679 5679 5679 5679 5679 5678 5677 5677 5676 5677 5677 5676 5676 5675 5673 5672 5671 5670 5669 5668 5667 5667
5618 5621 5623 5625 5627 5629 5631 5633 5635 5637 5639 5641 5643 5646 5648 5651 5653 5653 5653 5654 5655 5658 5660 5662 5663 5664 5666 5667 5668 5670 5671 5672 5673 5674 5675 5676 5676 5676 5676 5676 5676 5677 5677 5677 5677 5677 5677 5677 5676 5676 5676 5676 5675 5675 5675 5674 5674 5673 5673 5672 5671 5670 5669 5668 5667 5665 5664 5664 5664
5614 5616 5618 5621 5623 5624 5626 5628 5630 5633 5635 5637 5639 5642 5644 5646 5647 5648 5648 5650 5652 5654 5657 5659 5660 5662 5663 5664 5665 5667 5668 5669 5670 5672 5673 5673 5673 5673 5673 5673 5674 5674 5674 5674 5674 5674 5674 5674 5674 5674 5673 5673 5673 5673 5673 5672 5672 5671 5670 5669 5668 5667 5665 5664 5663 5662 5661 5661 5661
5610 5612 5614 5617 5618 5620 5622 5624 5626 5628 5631 5633 5635 5638 5640 5642 5643 5644 5645 5647 5649 5652 5654 5656 5658 5659 5660 5662 5663 5664 5666 5667 5668 5669 5670 5670 5670 5670 5671 5671 5671 5672 5672 5672 5671 5671 5671 5671 5671 5671 5671 5672 5672 5671 5670 5670 5669 5668 5667 5666 5664 5663 5662 5660 5659 5659 5659 5658 5657
5607 5609 5611 5613 5615 5617 5618 5621 5623 5625 5628 5630 5632 5634 5636 5638 5639 5640 5642 5644 5646 5649 5651 5653 5655 5657 5658 5659 5661 5662 5663 5665 5665 5666 5667 5667 5668 5668 5668 5668 5669 5669 5669 5668 5668 5668 5668 5668 5668 5668 5669 5670 5671 5669 5668 5667 5667 5666 5664 5663 5661 5660 5658 5658 5657 5657 5656 5655 5653
5603 5605 5607 5609 5611 5613 5615 5617 5619 5622 5624 5626 5628 5630 5632 5634 5636 5637 5639 5641 5644 5646 5648 5651 5653 5654 5656 5657 5659 5661 5662 5662 5663 5663 5664 5665 5665 5665 5666 5666 5666 5666 5666 5666 5666 5666 5666 5666 5666 5666 5666 5667 5668 5667 5666 5665 5664 5663 5662 5660 5658 5657 5657 5656 5655 5654 5652 5651 5649
5600 5602 5604 5606 5608 5610 5612 5614 5616 5618 5621 5623 5625 5627 5628 5630 5633 5634 5637 5639 5641 5644 5646 5648 5650 5652 5654 5656 5658 5659 5659 5660 5660 5661 5662 5662 5663 5663 5663 5663 5663 5663 5663 5663 5663 5663 5663 5663 5663 5663 5663 5664 5664 5664 5663 5662 5661 5660 5658 5657 5655 5655 5654 5653 5651 5650 5648 5647 5646
5597 5599 5601 5603 5605 5607 5609 5611 5613 5616 5618 5620 5622 5624 5626 5628 5630 5632 5634 5637 5639 5642 5644 5647 5648 5651 5653 5655 5657 5657 5657 5657 5658 5658 5659 5659 5660 5660 5660 5660 5661 5660 5660 5660 5661 5661 5661 5661 5661 5661 5661 5661 5660 5660 5659 5658 5658 5657 5655 5654 5653 5652 5650 5649 5648 5646 5645 5644 5642
5594 5596 5598 5600 5602 5604 5606 5609 5611 5613 5616 5618 5620 5622 5624 5626 5628 5631 5633 5635 5638 5641 5643 5645 5647 5649 5652 5653 5654 5654 5654 5654 5655 5656 5656 5657 5657 5657 5658 5658 5658 5658 5658 5658 5658 5659 5659 5660 5660 5660 5659 5658 5658 5657 5656 5655 5654 5653 5652 5651 5650 5648 5647 5646 5644 5643 5642 5640 5639
5592 5594 5596 5598 5600 5602 5604 5607 5609 5611 5614 5616 5618 5621 5623 5625 5627 5629 5632 5634 5637 5639 5641 5643 5646 5648 5650 5651 5651 5651 5651 5652 5653 5653 5653 5654 5654 5654 5655 5655 5656 5656 5656 5656 5656 5657 5658 5659 5658 5658 5657 5656 5654 5653 5653 5652 5650 5650 5649 5648 5647 5645 5644 5643 5641 5640 5638 5637 5635
5590 5592 5594 5596 5598 5600 5603 5605 5607 5610 5612 5615 5617 5619 5622 5624 5626 5628 5631 5633 5635 5638 5640 5642 5645 5647 5647 5648 5648 5648 5649 5649 5650 5651 5651 5652 5652 5652 5653 5653 5653 5653 5653 5653 5654 5655 5656 5656 5655 5654 5653 5653 5652 5650 5649 5648 5648 5647 5646 5645 5643 5642 5641 5639 5638 5636 5634 5633 5631
5588 5590 5592 5594 5597 5599 5601 5603 5606 5608 5611 5613 5616 5618 5620 5623 5625 5627 5630 5632 5634 5636 5639 5642 5643 5644 5644 5645 5645 5646 5646 5647 5648 5648 5649 5649 5650 5650 5650 5650 5650 5650 5651 5651 5652 5652 5652 5652 5651 5651 5650 5649 5648 5647 5647 5646 5646 5644 5643 5641 5640 5639 5638 5636 5634 5633 5631 5629 5628
5587 5588 5591 5593 5595 5597 5599 5602 5604 5607 5609 5612 5614 5617 5619 5622 5624 5626 5629 5631 5633 5636 5639 5641 5641 5641 5641 5642 5643 5643 5644 5645 5646 5646 5647 5647 5648 5648 5648 5648 5648 5648 5648 5649 5649 5649 5649 5648 5648 5648 5647 5646 5645 5645 5644 5643 5642 5641 5639 5638 5637 5636 5634 5633 5631 5629 5628 5626 5624
5585 5587 5589 5591 5593 5595 5598 5600 5602 5605 5608 5610 5613 5616 5618 5621 5623 5626 5628 5631 5633 5636 5638 5639 5638 5638 5639 5640 5641 5642 5643 5643 5643 5644 5645 5645 5646 5646 5646 5646 5646 5646 5646 5646 5646 5646 5646 5645 5645 5644 5643 5643 5643 5642 5641 5640 5638 5638 5636 5635 5634 5632 5630 5629 5627 5625 5624 5622 5620
5584 5586 5588 5590 5592 5594 5596 5598 5601 5604 5607 5610 5613 5615 5618 5621 5623 5626 5629 5631 5633 5634 5635 5635 5635 5636 5637 5638 5639 5640 5640 5641 5642 5642 5643 5643 5644 5645 5645 5645 5644 5644 5644 5644 5643 5643 5643 5643 5642 5641 5641 5640 5639 5638 5637 5636 5635 5634 5633 5631 5630 5628 5627 5625 5623 5622 5620 5618 5616
5584 5586 5588 5590 5592 5594 5596 5599 5601 5604 5607 5610 5613 5616 5619 5622 5624 5627 5628 5630 5631 5632 5632 5632 5633 5634 5635 5636 5637 5638 5639 5639 5640 5641 5642 5643 5643 5643 5642 5642 5642 5642 5641 5641 5641 5640 5640 5639 5639 5638 5638 5637 5636 5635 5634 5633 5632 5630 5629 5628 5626 5624 5623 5621 5619 5618 5616 5613 5612
5584 5586 5588 5590 5593 5595 5597 5600 5603 5606 5609 5613 5615 5618 5620 5622 5624 5625 5626 5627 5628 5628 5629 5630 5632 5633 5633 5634 5635 5636 5637 5638 5639 5640 5640 5640 5640 5640 5640 5640 5639 5639 5638 5638 5638 5637 5637 5636 5635 5635 5634 5633 5632 5631 5630 5629 5628 5627 5625 5624 5622 5621 5619 5617 5615 5613 5611 5609 5607
5585 5588 5590 5593 5596 5598 5601 5603 5606 5609 5613 5615 5617 5618 5619 5620 5622 5623 5623 5624 5625 5627 5628 5629 5630 5631 5632 5633 5634 5635 5636 5638 5638 5638 5638 5638 5638 5638 5638 5637 5637 5636 5636 5635 5635 5634 5634 5633 5632 5632 5631 5630 5629 5628 5627 5625 5624 5623 5622 5620 5618 5617 5615 5613 5611 5609 5607 5605 5603
5587 5590 5593 5596 5598 5600 5603 5605 5607 5608 5611 5613 5615 5616 5618 5618 5619 5620 5621 5623 5624 5625 5626 5628 5629 5630 5631 5632 5634 5635 5635 5635 5635 5635 5635 5635 5635 5635 5635 5634 5634 5634 5633 5633 5632 5632 5631 5631 5629 5628 5628 5627 5626 5624 5623 5622 5621 5619 5618 5616 5614 5613 5610 5609 5607 5605 5603 5601 5599
5588 5592 5594 5596 5597 5599 5601 5604 5606 5608 5609 5611 5613 5614 5615 5616 5618 5619 5620 5621 5623 5624 5625 5627 5628 5629 5631 5632 5633 5633 5633 5633 5633 5633 5633 5633 5633 5633 5632 5632 5632 5632 5631 5631 5630 5629 5628 5628 5627 5626 5625 5623 5622 5621 5620 5618 5617 5615 5614 5612 5610 5608 5607 5605 5603 5601 5599 5597 5595
5588 5591 5593 5594 5596 5598 5600 5603 5606 5608 5610 5610 5611 5613 5614 5615 5617 5618 5619 5621 5622 5623 5625 5626 5628 5629 5629 5630 5630 5630 5631 5631 5631 5631 5630 5631 5631 5631 5630 5630 5629 5629 5629 5628 5628 5627 5626 5625 5624 5623 5622 5620 5619 5618 5616 5615 5613 5612 5610 5608 5606 5605 5603 5601 5599 5597 5595 5593 5591
5588 5590 5592 5593 5596 5598 5600 5603 5605 5607 5609 5611 5611 5612 5613 5615 5616 5618 5619 5621 5622 5623 5625 5626 5627 5628 5628 5628 5628 5628 5628 5629 5629 5629 5629 5629 5629 5628 5628 5628 5627 5627 5626 5626 5625 5624 5623 5622 5621 5620 5618 5617 5616 5614 5613 5611 5609 5608 5606 5604 5603 5601 5599 5597 5595 5593 5591 5588 5586
5590 5592 5594 5595 5598 5600 5602 5603 5605 5607 5609 5611 5612 5613 5614 5615 5616 5617 5619 5620 5622 5623 5625 5625 5626 5626 5626 5626 5627 5626 5626 5626 5627 5627 5627 5627 5626 5626 5626 5625 5625 5624 5623 5623 5622 5621 5620 5619 5618 5617 5615 5614 5612 5611 5609 5608 5606 5604 5603 5601 5599 5597 5595 5593 5591 5588 5586 5584 5582
5593 5594 5596 5598 5600 5602 5603 5604 5605 5607 5609 5611 5613 5613 5614 5614 5616 5617 5619 5620 5622 5623 5623 5624 5624 5624 5625 5625 5625 5625 5625 5625 5625 5625 5625 5625 5624 5624 5624 5623 5623 5622 5621 5620 5619 5618 5617 5616 5615 5613 5612 5611 5609 5608 5606 5604 5603 5601 5599 5597 5595 5593 5591 5588 5586 5584 5582 5580 5578
5594 5596 5598 5599 5601 5602 5603 5604 5605 5607 5609 5610 5612 5613 5613 5614 5615 5617 5618 5620 5621 5622 5622 5623 5623 5623 5623 5623 5623 5623 5623 5623 5623 5623 5623 5623 5622 5622 5622 5621 5620 5619 5618 5618 5617 5615 5614 5613 5612 5610 5609 5608 5606 5604 5602 5600 5598 5597 5594 5593 5590 5588 5586 5584 5582 5580 5578 5575 5573
5596 5597 5598 5600 5602 5603 5604 5605 5606 5607 5608 5610 5611 5612 5613 5613 5614 5616 5618 5619 5620 5620 5621 5621 5621 5621 5621 5621 5622 5622 5622 5621 5621 5621 5621 5620 5620 5619 5619 5618 5617 5617 5616 5615 5614 5613 5611 5610 5608 5607 5606 5604 5602 5600 5598 5596 5594 5592 5590 5588 5586 5584 5582 5580 5578 5575 5573 5571 5569
5596 5598 5599 5601 5602 5603 5604 5605 5606 5607 5608 5609 5610 5612 5612 5613 5614 5616 5617 5618 5618 5619 5619 5619 5619 5619 5619 5619 5619 5619 5619 5619 5619 5618 5618 5618 5617 5617 5616 5615 5614 5614 5613 5612 5611 5609 5608 5607 5605 5603 5602 5600 5598 5596 5594 5592 5590 5588 5586 5584 5582 5580 5578 5575 5573 5571 5569 5566 5564